CW2074 Weather Reports


Display with metric or nautical units.
time (UTC)temp
F
wind
direction
speed
MPH
gust
MPH
rain 1hr
in
rain 24hr
in
rain mn
in
humidity
%
barometer
mb
20171218142014 49 243 0.0 2.0 0.00 0.08 0.00 92 1022.0
20171218140346 49 234 0.0 1.0 0.00 0.08 0.00 92 1021.9
20171218134713 48 234 0.0 2.0 0.00 0.08 0.00 92 1021.8
20171218133122 47 209 1.0 3.0 0.00 0.08 0.00 92 1022.1
20171218131423 47 218 0.0 2.0 0.00 0.08 0.00 92 1022.1
20171218125801 47 218 0.0 0.0 0.00 0.08 0.00 92 1021.9
20171218124151 47 218 0.0 1.0 0.00 0.08 0.00 92 1021.9
20171218122513 47 218 0.0 0.0 0.00 0.08 0.00 92 1022.0
20171218120812 47 218 0.0 2.0 0.00 0.08 0.00 92 1021.8
20171218115224 46 218 0.0 1.0 0.00 0.08 0.00 92 1021.6
20171218113551 46 218 0.0 0.0 0.00 0.08 0.00 92 1021.3
20171218111900 46 218 0.0 1.0 0.00 0.08 0.00 92 1021.2
20171218110248 47 218 0.0 0.0 0.00 0.08 0.00 92 1020.9
20171218104634 46 218 0.0 0.0 0.00 0.08 0.00 92 1020.9
20171218103028 46 218 0.0 1.0 0.00 0.08 0.00 92 1020.9
20171218101253 46 218 0.0 0.0 0.00 0.08 0.00 92 1020.7
20171218095718 46 218 0.0 0.0 0.00 0.08 0.00 92 1020.8
20171218094058 46 218 0.0 0.0 0.00 0.08 0.00 92 1021.0
20171218092342 46 218 0.0 0.0 0.00 0.08 0.00 92 1021.1
20171218090744 46 218 0.0 0.0 0.00 0.08 0.00 92 1021.4
20171218085110 46 218 0.0 0.0 0.00 0.08 0.00 92 1021.5
20171218083420 46 218 0.0 0.0 0.00 0.08 0.00 92 1021.7
20171218081842 46 218 0.0 0.0 0.00 0.08 0.00 92 1021.8
20171218080138 46 218 0.0 0.0 0.00 0.08 0.00 92 1021.7
20171218074558 46 218 0.0 0.0 0.00 0.08 0.00 92 1021.9
20171218072937 46 218 0.0 0.0 0.00 0.08 0.00 92 1022.0
20171218071222 46 218 0.0 0.0 0.00 0.08 0.00 92 1021.6
20171218065545 46 218 0.0 1.0 0.00 0.08 0.00 92 1021.6
20171218063916 46 218 0.0 1.0 0.00 0.08 0.00 92 1021.3
20171218062343 46 218 0.0 0.0 0.00 0.08 0.00 92 1021.3
20171218060635 46 218 0.0 0.0 0.00 0.08 0.00 92 1021.5
20171218055025 46 218 0.0 0.0 0.00 0.08 0.00 92 1021.5
20171218053352 45 218 0.0 0.0 0.00 0.08 0.00 92 1021.8
20171218051637 45 218 0.0 0.0 0.00 0.08 0.00 92 1021.5
20171218050018 45 218 0.0 0.0 0.00 0.08 0.00 92 1021.9
20171218044336 45 218 0.0 0.0 0.00 0.08 0.08 92 1021.9
20171218042733 45 218 0.0 0.0 0.00 0.08 0.08 92 1021.9
20171218041057 45 218 0.0 1.0 0.00 0.08 0.08 92 1021.7
20171218035447 45 218 0.0 0.0 0.00 0.08 0.08 92 1021.8
20171218034134 45 218 0.0 0.0 0.00 0.08 0.08 92 1022.1
20171218032738 45 218 0.0 0.0 0.00 0.08 0.08 92 1022.0
20171218030557 45 218 0.0 0.0 0.00 0.08 0.08 92 1022.3
20171218024922 45 218 0.0 0.0 0.00 0.08 0.08 92 1022.3
20171218023211 45 218 0.0 0.0 0.00 0.08 0.08 92 1022.3
20171218021621 45 218 0.0 1.0 0.00 0.08 0.08 92 1022.3
20171218015932 45 218 0.0 0.0 0.00 0.08 0.08 92 1022.7
20171218014400 45 218 0.0 1.0 0.00 0.08 0.08 92 1022.5
20171218012645 45 218 0.0 1.0 0.00 0.08 0.08 92 1022.6
20171218011041 45 218 0.0 0.0 0.00 0.08 0.08 92 1022.9
20171218005413 45 218 0.0 1.0 0.00 0.08 0.08 92 1022.8
20171218003833 45 218 0.0 1.0 0.00 0.08 0.08 92 1022.6
20171218002105 45 235 0.0 0.0 0.00 0.08 0.08 92 1022.6
20171218000511 45 235 0.0 2.0 0.00 0.08 0.08 92 1022.4
20171217234812 46 155 0.0 0.0 0.00 0.08 0.08 92 1022.6
20171217233211 46 155 0.0 0.0 0.00 0.08 0.08 92 1022.2
20171217231528 46 155 0.0 0.0 0.00 0.08 0.08 92 1022.2
20171217225912 46 155 0.0 0.0 0.00 0.08 0.08 92 1022.3
20171217224245 46 155 0.0 0.0 0.01 0.08 0.08 92 1022.1
20171217222625 46 155 0.0 0.0 0.01 0.08 0.08 92 1022.0
20171217221009 46 155 0.0 1.0 0.01 0.08 0.08 92 1022.3
20171217215329 46 207 0.0 0.0 0.02 0.08 0.08 92 1022.4
20171217213711 47 207 0.0 0.0 0.02 0.07 0.07 91 1022.0
20171217211946 47 207 0.0 0.0 0.02 0.07 0.07 91 1021.9
20171217210419 47 207 0.0 0.0 0.04 0.07 0.07 91 1022.0
20171217204700 48 207 0.0 1.0 0.06 0.06 0.06 90 1022.2
20171217203042 48 207 0.0 0.0 0.05 0.05 0.05 89 1022.6
20171217201425 48 207 0.0 0.0 0.04 0.04 0.04 87 1022.6
20171217195754 49 207 0.0 0.0 0.02 0.02 0.02 84 1022.8
20171217194130 50 207 0.0 1.0 0.00 0.00 0.00 78 1023.1
20171217192439 51 207 0.0 0.0 0.00 0.00 0.00 74 1022.5
20171217190829 51 207 0.0 0.0 0.00 0.00 0.00 71 1022.5
20171217185138 52 207 0.0 1.0 0.00 0.00 0.00 59 1023.4
20171217183544 52 207 0.0 0.0 0.00 0.00 0.00 58 1023.2
20171217181918 52 207 0.0 2.0 0.00 0.00 0.00 53 1023.6
20171217180205 52 286 0.0 2.0 0.00 0.00 0.00 56 1024.0
20171217174624 51 241 0.0 2.0 0.00 0.00 0.00 57 1024.3
20171217172954 51 221 0.0 2.0 0.00 0.00 0.00 59 1024.8
20171217171334 51 262 0.0 1.0 0.00 0.00 0.00 61 1025.0
20171217165645 50 317 0.0 2.0 0.00 0.00 0.00 62 1025.5
20171217164006 50 323 0.0 1.0 0.00 0.00 0.00 63 1025.6
20171217162414 49 323 0.0 2.0 0.00 0.00 0.00 66 1026.2
20171217160756 48 82 0.0 2.0 0.00 0.00 0.00 67 1026.4
20171217155029 46 327 0.0 2.0 0.00 0.00 0.00 69 1026.0
20171217153418 43 314 0.0 3.0 0.00 0.00 0.00 74 1025.8
20171217151704 41 95 1.0 3.0 0.00 0.00 0.00 77 1025.3
20171217150056 40 157 0.0 2.0 0.00 0.00 0.00 82 1025.0
20171217144415 39 187 0.0 1.0 0.00 0.00 0.00 87 1025.6
20171217142758 37 187 0.0 0.0 0.00 0.00 0.00 87 1025.9